This demonstration page uses our WeatherBlox Daily Observations layout. Learn more.

Left ArrowRight Arrow

Hourly Observations for May 8, 2015

Temp ( °F °C ) Dew Point ( °F °C ) Humidity (%) Winds ( mph kmh ) Pressure ( in mb ) Visibility ( mi km ) Precip ( " mm )
12:06 am 00:06 Mostly Cloudy 54 12 46 8 77 77 N 13 20 30.00 1016 10 16 0.00 0.00
12:53 am 00:53 Cloudy 53 11.7 46 7.8 77 77 N 20 31 29.98 1015 10 16 0.00 0.00
1:53 am 01:53 Cloudy 52 11.1 45 7.2 77 77 N 16 26 30.00 1016 10 16 0.00 0.00
2:53 am 02:53 Cloudy 51 10.6 45 7.2 80 80 NNE 8 13 30.00 1016 10 16 0.00 0.00
3:34 am 03:34 Partly Cloudy 48 9 45 7 87 87 N 10 17 30.03 1017 10 16 0.00 0.00
3:53 am 03:53 Clear 49 9.4 44 6.7 83 83 N 13 20 29.98 1015 10 16 0.00 0.00
4:53 am 04:53 Clear 47 8.3 43 6.1 86 86 N 8 13 30.01 1016 10 16 0.00 0.00
5:42 am 05:42 Mostly Cloudy 46 8 43 6 87 87 NNE 5 7 30.06 1018 10 16 0.00 0.00
5:53 am 05:53 Cloudy 46 7.8 43 6.1 89 89 ENE 5 7 30.03 1017 10 16 0.00 0.00
6:06 am 06:06 Cloudy 46 8 43 6 87 87 NE 7 11 30.09 1019 10 16 0.00 0.00
6:53 am 06:53 Cloudy 48 8.9 44 6.7 86 86 NE 10 17 30.05 1018 10 16 0.00 0.00
7:36 am 07:36 Cloudy 48 9 45 7 87 87 NNE 9 15 30.12 1020 10 16 0.00 0.00
7:49 am 07:49 Cloudy 48 9 45 7 87 87 N 12 19 30.12 1020 10 16 0.00 0.00
7:53 am 07:53 Cloudy 49 9.4 44 6.7 83 83 NNE 12 19 30.07 1018 10 16 0.00 0.00
8:53 am 08:53 Cloudy 50 10 44 6.7 80 80 NNE 13 20 30.09 1019 10 16 0.00 0.00
9:53 am 09:53 Cloudy 51 10.6 45 7.2 80 80 N 13 20 30.09 1019 10 16 0.00 0.00
10:53 am 10:53 Cloudy 53 11.7 45 7.2 74 74 NNE 10 17 30.09 1019 10 16 0.00 0.00
11:14 am 11:14 Mostly Cloudy 55 13 46 8 72 72 NNE 16 26 30.09 1019 10 16 0.00 0.00
11:53 am 11:53 Cloudy 57 13.9 47 8.3 69 69 NE 14 22 30.07 1018 10 16 0.00 0.00
12:33 pm 12:33 Partly Cloudy 59 15 48 8.9 67 67 NE 10 17 30.03 1017 10 16 0.00 0.00
12:53 pm 12:53 Mostly Sunny 60 15.6 48 8.9 65 65 NNE 8 13 30.06 1018 10 16 0.00 0.00
1:53 pm 13:53 Mostly Sunny 62 16.7 48 8.9 60 60 NE 12 19 30.03 1017 10 16 0.00 0.00
2:53 pm 14:53 Mostly Sunny 64 17.8 49 9.4 58 58 NE 10 17 30.01 1016 10 16 0.00 0.00
3:53 pm 15:53 Partly Cloudy 65 18.3 50 10 59 59 E 13 20 30.02 1017 10 16 0.00 0.00
4:53 pm 16:53 Mostly Cloudy 64 17.8 50 10 60 60 ENE 12 19 30.00 1016 10 16 0.00 0.00
5:53 pm 17:53 Mostly Cloudy 63 17.2 51 10.6 65 65 E 9 15 30.00 1016 10 16 0.00 0.00
6:26 pm 18:26 Mostly Cloudy 61 16 50 10 68 68 E 12 19 29.97 1015 10 16 0.00 0.00
6:36 pm 18:36 Partly Cloudy 62 16.7 50 10 65 65 E 12 19 29.97 1015 10 16 0.00 0.00
6:53 pm 18:53 Mostly Sunny 61 16.1 50 10 67 67 E 13 20 30.00 1016 10 16 0.00 0.00
7:39 pm 19:39 Mostly Cloudy 60 15.6 50 10 70 70 E 10 17 29.97 1015 10 16 0.00 0.00
7:46 pm 19:46 Mostly Sunny 59 15 49 9.4 69 69 E 8 13 30.00 1016 10 16 0.00 0.00
7:53 pm 19:53 Mostly Cloudy 59 15 49 9.4 69 69 ESE 10 17 30.02 1017 10 16 0.00 0.00
8:53 pm 20:53 Cloudy 58 14.4 49 9.4 72 72 ESE 8 13 30.04 1017 10 16 0.00 0.00
9:53 pm 21:53 Cloudy 57 13.9 50 10 78 78 ESE 12 19 30.04 1017 10 16 0.00 0.00
10:36 pm 22:36 Partly Cloudy 55 12.8 49 9.4 80 80 E 9 15 30.06 1018 10 16 0.00 0.00
10:53 pm 22:53 Mostly Clear 54 12.2 49 9.4 83 83 E 8 13 30.04 1017 10 16 0.00 0.00
11:53 pm 23:53 Cloudy 53 11.7 48 8.9 83 83 E 8 13 30.05 1018 10 16 0.00 0.00

Powered by AerisWeather